[[{"header":{"parameterUnit":"m.s-1","parameterCategory":1,"la1":30.2991,"la2":30.254,"lo1":-89.0895,"lo2":-89.0444,"dy":0.0017,"dx":0.0017,"nx":28,"ny":28,"refTime":"2024-10-14T21:00:00:Z","depth":0,"parameterNumber":2,"parameterNumberName":"U-component_of_WINDS"},"data":[0,0,0,0,0,0,0,0,0,0,0,0,0,0,0,0,0,0,0,0,0,0,0,0,0,0,0,0,0,0,0,0,0,0,0,0,0,0,0,0,0,0,0,0,0,0,0,0,0,0,0,0,0,0,0,0,0,0,2.4534,2.4535,0,2.4587,2.4588,2.4589,2.4545,2.4543,2.4541,2.454,2.46,2.4603,2.4606,0,0,0,0,0,0,0,0,0,0,0,0,0,2.4402,2.4405,2.4534,2.4535,2.4535,2.4587,2.4588,2.4589,2.4545,2.4543,2.4541,2.4539,2.4598,2.4602,2.4606,0,0,0,0,0,0,0,0,0,0,0,0,0,2.4458,2.4406,2.4534,2.452,2.4519,2.4587,2.4588,2.4589,2.4546,2.4543,2.454,2.4538,2.4597,2.4602,2.4607,2.4693,0,0,2.4622,2.4624,0,0,0,0,0,0,0,0,2.4455,2.4463,2.4521,2.4521,2.452,2.4557,2.4563,2.4624,2.4547,2.4536,2.454,2.4536,2.4588,2.4593,2.461,2.4696,2.4699,2.4623,2.4626,2.4628,2.4629,0,0,0,0,0,0,0,2.4451,2.446,2.4555,2.4522,2.4522,2.4513,2.4518,2.4575,2.4577,2.4537,2.4533,2.454,2.4587,2.4605,2.4611,2.4699,2.4622,2.4627,2.463,2.4632,2.4864,2.4867,0,0,0,0,0,0,2.4448,2.4457,2.4553,2.4557,2.448,2.4518,2.4523,2.4548,2.4576,2.4578,2.4542,2.4538,2.4598,2.4605,2.4613,2.4719,2.4628,2.4632,2.4635,2.4861,2.4865,2.4868,0,0,0,0,0,0,2.4445,2.4457,2.4551,2.4506,2.4518,2.4523,2.4551,2.455,2.4568,2.458,2.4581,2.456,2.4596,2.4606,2.4674,2.472,2.4635,2.4639,2.4857,2.4862,2.4867,2.4929,0,0,0,0,0,0,2.4441,2.4456,2.4487,2.4507,2.452,2.461,2.4554,2.4553,2.4576,2.4571,2.4597,2.4599,2.4595,2.4667,2.4679,2.4725,2.4643,2.4853,2.4859,2.4865,2.4923,2.4935,2.4946,0,0,0,0,0,2.4437,2.4502,2.4488,2.45,2.4559,2.4612,2.462,2.4612,2.458,2.4613,2.4621,2.4598,2.4713,2.4674,2.4688,2.4736,2.485,2.4858,2.4865,2.4918,2.4933,2.4946,0,0,0,0,0,0,2.4488,2.4505,2.4489,2.4563,2.4587,2.4605,2.4645,2.4628,2.4662,2.4656,2.4646,2.4653,2.4725,2.4737,2.4694,2.4823,2.4777,2.4787,2.4813,2.4827,2.4838,2.4835,2.4647,0,0,0,0,0,2.4507,2.4548,2.4561,2.4625,2.4637,2.464,2.4663,2.4655,2.4679,2.4689,2.4703,2.473,2.4772,2.48,2.4839,2.4924,2.4932,2.4965,2.4976,2.4985,2.4995,2.5045,2.5061,2.4892,2.4892,2.4892,0,0,2.4549,2.4563,2.4589,2.4636,2.4653,2.4698,2.4648,2.4696,2.4731,2.4697,2.4763,2.4774,2.4804,2.4882,2.4917,2.4894,2.5043,2.4995,2.5002,2.5006,2.5054,2.507,2.5084,2.4897,2.4896,2.4895,0,0,2.4647,2.466,2.4717,2.4735,2.4762,2.4764,2.4778,2.4799,2.4805,2.4871,2.4848,2.489,2.4962,2.4985,2.5006,2.5117,2.5099,2.513,2.5191,2.524,2.5253,2.5265,2.5308,2.5323,2.514,2.514,2.514,0,2.4695,2.4759,2.4748,2.4799,2.4822,2.4794,2.4853,2.4872,2.4911,2.4929,2.4902,2.4995,2.5012,2.5097,2.5125,2.5142,2.516,2.5128,2.5252,2.5264,2.5275,2.5315,2.5331,2.5144,2.5143,2.5143,2.5142,0,2.4819,2.4865,2.4907,2.4945,2.4973,2.5028,2.5028,2.5058,2.5049,2.5054,2.5124,2.5144,2.5189,2.5208,2.52,2.5294,2.5279,2.5252,2.5206,2.5295,2.5333,2.5348,2.5149,2.5148,2.5147,2.5146,0,0,2.495,2.4983,2.4999,2.5018,2.5047,2.5083,2.5138,2.5181,2.5208,2.5237,2.5286,2.5349,2.5326,2.535,2.5344,2.5387,2.5478,2.5355,2.5356,2.538,2.5587,2.5608,2.5626,2.5465,2.5468,2.5471,2.5586,0,2.5051,2.5146,2.5139,2.523,2.5274,2.5249,2.5298,2.5323,2.533,2.5371,2.538,2.5426,2.539,2.5405,2.5446,2.5458,2.552,2.5449,2.5514,2.5516,2.5509,2.5646,2.5668,2.5775,2.56,2.5603,2.5604,0,2.5182,2.5215,2.531,2.5336,2.5354,2.5398,2.5439,2.5477,2.5506,2.5509,2.5538,2.5526,2.5585,2.5537,2.5621,2.5574,2.56,2.561,2.5614,2.5621,2.5567,2.5659,2.5808,2.5826,2.5627,2.5626,2.5624,0,2.5271,2.534,2.5406,2.5423,2.5453,2.5486,2.5501,2.5527,2.5554,2.5591,2.5609,2.5653,2.5677,2.5713,2.5714,2.5678,2.5801,2.5751,2.5808,2.5808,2.5836,2.5834,2.5994,2.5849,2.5849,2.5849,2.5848,0,2.5386,2.5446,2.5447,2.5488,2.5556,2.5549,2.5617,2.5629,2.5653,2.5699,2.568,2.5724,2.5722,2.5768,2.5769,2.5841,2.5852,2.5858,2.5858,2.5861,2.5861,2.5879,2.5873,2.5853,2.5852,2.5851,2.585,0,2.5497,2.55,2.5571,2.5596,2.5603,2.5653,2.5675,2.5715,2.5722,2.578,2.5793,2.5805,2.5858,2.5862,2.5923,2.5925,2.6013,2.6004,2.6003,2.6002,2.6059,2.6055,2.6238,2.6263,2.61,2.6101,2.6103,0,2.5571,2.5617,2.5647,2.5675,2.5692,2.5738,2.5766,2.5763,2.5793,2.5833,2.587,2.592,2.5961,2.6047,2.6062,2.611,2.6104,2.6165,2.6111,2.6113,2.6108,2.6106,2.6112,2.6176,2.6177,2.6179,2.618,0,2.5704,2.5704,2.5744,2.5787,2.5821,2.5854,2.5885,2.5911,2.5912,2.5948,2.6001,2.6032,2.6096,2.6148,2.6195,2.6214,2.6199,2.6197,2.6213,2.6217,2.6216,2.622,2.6034,2.6193,2.6192,2.6191,2.619,2.6189,2.58,2.5841,2.5869,2.5916,2.5939,2.597,2.601,2.6023,2.6067,2.6117,2.6113,2.6173,2.6206,2.6268,2.629,2.6339,2.6319,2.6341,2.6347,2.6354,2.6361,2.6206,2.6347,2.6347,2.6347,2.6346,2.6346,0,2.5934,2.5951,2.5995,2.6039,2.6078,2.6059,2.6093,2.6127,2.618,2.621,2.6251,2.6315,2.6366,2.6386,2.6437,2.6473,2.6468,2.6487,2.6485,2.649,2.6374,2.6357,2.649,2.649,2.649,2.649,2.649,2.649,2.6008,2.6077,2.6081,2.6163,2.618,2.6238,2.626,2.629,2.6315,2.6386,2.6428,2.644,2.6469,2.6522,2.657,2.6574,2.6595,2.6618,2.6621,2.6512,2.6498,2.6484,2.6467,2.6622,2.6622,2.6732,2.6733,2.6734]},{"header":{"parameterUnit":"m.s-1","parameterCategory":1,"la1":30.2991,"la2":30.254,"lo1":-89.0895,"lo2":-89.0444,"dy":0.0017,"dx":0.0017,"nx":28,"ny":28,"refTime":"2024-10-14T21:00:00:Z","depth":0,"parameterNumber":3,"parameterNumberName":"V-component_of_WINDS"},"data":[0,0,0,0,0,0,0,0,0,0,0,0,0,0,0,0,0,0,0,0,0,0,0,0,0,0,0,0,0,0,0,0,0,0,0,0,0,0,0,0,0,0,0,0,0,0,0,0,0,0,0,0,0,0,0,0,0,0,0.734,0.7341,0,0.7484,0.7486,0.7487,0.7431,0.7428,0.7424,0.7421,0.757,0.7577,0.7584,0,0,0,0,0,0,0,0,0,0,0,0,0,0.7013,0.702,0.7339,0.7341,0.7343,0.7484,0.7486,0.7488,0.7432,0.7428,0.7424,0.742,0.7568,0.7576,0.7585,0,0,0,0,0,0,0,0,0,0,0,0,0,0.7156,0.7022,0.7339,0.7332,0.7333,0.7484,0.7486,0.7488,0.7433,0.7428,0.7422,0.7418,0.7565,0.7575,0.7586,0.7752,0,0,0.7618,0.7623,0,0,0,0,0,0,0,0,0.7148,0.7168,0.7331,0.7333,0.7334,0.7434,0.7425,0.7577,0.7434,0.7395,0.7421,0.7415,0.7529,0.7542,0.7581,0.7759,0.7766,0.7619,0.7626,0.763,0.7633,0,0,0,0,0,0,0,0.7138,0.7162,0.7397,0.7334,0.7335,0.7321,0.7336,0.7454,0.7488,0.7398,0.7394,0.7412,0.7529,0.757,0.7584,0.7768,0.7619,0.7628,0.7635,0.7639,0.8086,0.8091,0,0,0,0,0,0,0.7128,0.7154,0.7392,0.7401,0.7227,0.7331,0.7348,0.7407,0.7487,0.7494,0.7416,0.7409,0.7555,0.7571,0.7589,0.7786,0.763,0.764,0.7646,0.8081,0.8087,0.8093,0,0,0,0,0,0,0.7121,0.715,0.7386,0.7276,0.7305,0.7342,0.741,0.7413,0.7454,0.7501,0.7507,0.7452,0.7551,0.7574,0.7711,0.779,0.7645,0.7655,0.8074,0.8083,0.809,0.8184,0,0,0,0,0,0,0.7112,0.7148,0.7212,0.7278,0.7312,0.7507,0.7415,0.7419,0.7473,0.7465,0.7536,0.7543,0.7549,0.7695,0.7722,0.7802,0.7663,0.8067,0.8078,0.8088,0.8174,0.8194,0.8212,0,0,0,0,0,0.7101,0.7234,0.7216,0.7245,0.7393,0.7512,0.7531,0.7535,0.7479,0.7544,0.7573,0.7541,0.7778,0.771,0.7739,0.7824,0.8062,0.8075,0.8087,0.8165,0.819,0.8211,0,0,0,0,0,0,0.7177,0.7242,0.7223,0.7382,0.7441,0.7502,0.7584,0.7562,0.7639,0.7628,0.7629,0.7646,0.7787,0.782,0.7743,0.7987,0.7911,0.793,0.7961,0.7985,0.8004,0.7993,0.7672,0,0,0,0,0,0.7212,0.7304,0.7356,0.7491,0.7522,0.7548,0.76,0.7597,0.7659,0.7685,0.7724,0.7786,0.7873,0.7931,0.8015,0.8178,0.8191,0.8251,0.827,0.8285,0.8301,0.8386,0.8412,0.8134,0.8134,0.8133,0,0,0.7286,0.7333,0.7391,0.7507,0.7553,0.7647,0.7569,0.7673,0.7742,0.77,0.7832,0.7863,0.7931,0.8081,0.8149,0.8113,0.8381,0.8301,0.8313,0.832,0.8401,0.8428,0.8451,0.8142,0.8141,0.8139,0,0,0.7468,0.7514,0.763,0.7677,0.7747,0.7763,0.779,0.7854,0.7873,0.8004,0.7974,0.8056,0.8208,0.8257,0.8302,0.8498,0.8471,0.8526,0.8625,0.8708,0.8729,0.8749,0.8816,0.8841,0.8542,0.8542,0.8542,0,0.7551,0.7692,0.7692,0.7797,0.7848,0.7813,0.7929,0.7975,0.8069,0.8104,0.8062,0.8249,0.8293,0.8453,0.85,0.8539,0.8568,0.8517,0.8726,0.8746,0.8764,0.8828,0.8854,0.8548,0.8547,0.8547,0.8546,0,0.7789,0.7886,0.7971,0.8061,0.8122,0.8232,0.8248,0.8309,0.83,0.832,0.8453,0.8504,0.8595,0.8633,0.8627,0.8791,0.8765,0.8725,0.8648,0.8796,0.8857,0.8882,0.8556,0.8554,0.8552,0.8551,0,0,0.8025,0.8111,0.8142,0.8181,0.8254,0.8329,0.8437,0.8525,0.8576,0.8642,0.873,0.8858,0.882,0.8871,0.8869,0.8942,0.9091,0.8892,0.8894,0.8925,0.9271,0.93,0.9329,0.9073,0.9078,0.9082,0.9264,0,0.821,0.8398,0.84,0.8573,0.8661,0.8628,0.8721,0.8775,0.8796,0.8874,0.8896,0.8986,0.893,0.896,0.9031,0.9058,0.916,0.9045,0.9154,0.9158,0.9136,0.9361,0.9392,0.9562,0.9288,0.9292,0.9295,0,0.8453,0.8524,0.8705,0.8762,0.8799,0.8883,0.8962,0.9038,0.9097,0.9107,0.9162,0.9149,0.9256,0.9176,0.9323,0.9244,0.9289,0.9308,0.9315,0.9324,0.9235,0.9374,0.9617,0.9642,0.9333,0.933,0.9327,0,0.8603,0.8745,0.887,0.8905,0.8976,0.9034,0.9067,0.9122,0.9174,0.9243,0.9276,0.9358,0.9402,0.9465,0.9472,0.9414,0.9619,0.954,0.9628,0.9628,0.9672,0.9669,0.9924,0.9704,0.9704,0.9703,0.9702,0,0.881,0.8921,0.8938,0.9015,0.9138,0.9139,0.926,0.9287,0.9336,0.9416,0.9393,0.9469,0.9476,0.9553,0.956,0.9679,0.97,0.9709,0.9709,0.971,0.9709,0.9738,0.9726,0.971,0.9708,0.9707,0.9706,0,0.8999,0.9015,0.9149,0.9204,0.922,0.9308,0.9354,0.9427,0.9444,0.9546,0.957,0.9598,0.9688,0.9702,0.9808,0.9812,0.9953,0.9942,0.9933,0.9931,1.0016,1.0007,1.0298,1.0334,1.0093,1.0095,1.0097,0,0.9128,0.9213,0.9276,0.9328,0.9362,0.9447,0.9499,0.9502,0.9557,0.963,0.9693,0.9781,0.985,0.9995,1.0024,1.0104,1.0093,1.019,1.0105,1.0102,1.0092,1.0086,1.0093,1.0205,1.0208,1.021,1.0212,0,0.9356,0.9359,0.9435,0.9514,0.9576,0.9638,0.9697,0.974,0.9751,0.9813,0.9904,0.9958,1.0065,1.0151,1.023,1.0261,1.0238,1.0238,1.0262,1.0263,1.0253,1.0257,0.9975,1.0231,1.023,1.0228,1.0227,1.0226,0.9518,0.959,0.9645,0.9729,0.9773,0.9827,0.9897,0.9922,0.9998,1.0085,1.0082,1.0181,1.0236,1.0338,1.0375,1.0452,1.0421,1.0456,1.0465,1.0473,1.048,1.0242,1.0467,1.0466,1.0466,1.0465,1.0465,0,0.9742,0.9775,0.9853,0.9934,1.0,0.9972,1.0034,1.009,1.0178,1.0231,1.0299,1.0402,1.0484,1.0518,1.0599,1.0653,1.0644,1.0674,1.0669,1.0676,1.0505,1.0475,1.068,1.068,1.068,1.0679,1.0679,1.0679,0.9867,0.9986,0.9995,1.0135,1.0167,1.0263,1.0301,1.035,1.0391,1.0507,1.0575,1.0596,1.0641,1.0724,1.0797,1.0805,1.0834,1.0868,1.0871,1.071,1.0689,1.0668,1.0639,1.0875,1.0876,1.1035,1.1037,1.1038]}]]